TimeEST,TemperatureF,Dew PointF,Humidity,Sea Level PressureIn,VisibilityMPH,Wind Direction,Wind SpeedMPH,Gust SpeedMPH,PrecipitationIn,Events,Conditions,WindDirDegrees,DateUTC
12:54 AM,18.0,3.9,54,30.16,10.0,Calm,Calm,-,N/A,,Overcast,0,2013-01-24 05:54:00
1:54 AM,17.1,3.0,54,30.16,10.0,East,4.6,-,N/A,,Overcast,90,2013-01-24 06:54:00
2:54 AM,17.1,3.9,56,30.14,10.0,East,4.6,-,N/A,,Overcast,90,2013-01-24 07:54:00
3:54 AM,16.0,3.9,59,30.13,10.0,NE,3.5,-,N/A,,Overcast,40,2013-01-24 08:54:00
4:54 AM,17.1,3.9,56,30.13,10.0,NNE,8.1,-,N/A,,Overcast,20,2013-01-24 09:54:00
5:54 AM,16.0,6.1,65,30.14,10.0,North,6.9,-,N/A,,Overcast,350,2013-01-24 10:54:00
6:54 AM,16.0,6.1,65,30.17,10.0,North,9.2,-,N/A,,Overcast,360,2013-01-24 11:54:00
7:54 AM,15.1,6.1,68,30.20,10.0,NNW,4.6,-,N/A,,Scattered Clouds,330,2013-01-24 12:54:00
8:54 AM,19.0,6.1,57,30.22,10.0,NNW,9.2,-,N/A,,Clear,340,2013-01-24 13:54:00
9:54 AM,19.9,1.9,46,30.25,10.0,North,11.5,19.6,N/A,,Clear,350,2013-01-24 14:54:00
10:54 AM,21.9,-0.0,38,30.28,10.0,NNW,16.1,24.2,N/A,,Clear,340,2013-01-24 15:54:00
11:54 AM,23.0,1.9,40,30.28,10.0,NNW,18.4,24.2,N/A,,Clear,330,2013-01-24 16:54:00
12:54 PM,23.0,1.0,39,30.29,10.0,NW,18.4,27.6,N/A,,Partly Cloudy,320,2013-01-24 17:54:00
1:54 PM,25.0,3.9,41,30.30,10.0,NW,18.4,27.6,N/A,,Mostly Cloudy,310,2013-01-24 18:54:00
2:54 PM,26.1,1.9,35,30.32,10.0,NNW,9.2,18.4,N/A,,Overcast,340,2013-01-24 19:54:00
3:54 PM,25.0,-2.9,30,30.35,10.0,NNW,18.4,25.3,N/A,,Clear,340,2013-01-24 20:54:00
4:54 PM,24.1,-2.9,31,30.38,10.0,NNW,12.7,21.9,N/A,,Clear,330,2013-01-24 21:54:00
5:54 PM,21.9,-2.0,35,30.41,10.0,NW,8.1,-,N/A,,Clear,310,2013-01-24 22:54:00
6:54 PM,21.0,-0.9,38,30.44,10.0,NW,4.6,-,N/A,,Clear,310,2013-01-24 23:54:00
7:54 PM,16.0,1.0,52,30.46,10.0,West,3.5,-,N/A,,Clear,260,2013-01-25 00:54:00
8:54 PM,17.1,1.0,50,30.46,10.0,WSW,4.6,-,N/A,,Clear,250,2013-01-25 01:54:00
9:54 PM,14.0,1.9,59,30.47,10.0,WSW,4.6,-,N/A,,Clear,240,2013-01-25 02:54:00
10:54 PM,12.9,1.9,62,30.47,10.0,West,4.6,-,N/A,,Clear,280,2013-01-25 03:54:00
11:54 PM,8.1,1.9,76,30.48,10.0,West,4.6,-,N/A,,Clear,260,2013-01-25 04:54:00